Wind_Speed
30 34 40 37 39 41 43 47 48 43 43 33 36 35 38 39 41 44 45 48 49 49 44 41 40 39 39 39 40 38 39 38 38 40 42 45 43 37
35 32 39 37 38 46 48 39 41 44 44 38 37 36 33 33 36 40 44 46 47 46 42 42 39 38 38 37 38 36 36 37 38 40 42 43 36 32
41 39 46 40 44 42 41 42 44 38 42 41 38 36 36 34 35 38 39 42 43 41 41 42 42 36 35 38 36 35 35 35 38 39 41 38 32 29
40 46 35 38 42 41 42 42 41 37 40 42 40 38 37 36 37 37 39 42 43 44 44 45 44 39 36 38 36 34 33 34 35 38 37 33 30 28
37 36 35 37 45 46 43 41 37 37 37 41 42 41 39 39 41 43 44 46 45 48 49 49 47 43 40 40 39 36 34 32 34 35 34 29 28 28
38 40 41 38 41 40 40 37 36 37 37 39 41 43 43 42 45 46 48 49 50 47 51 52 50 47 42 41 40 38 35 32 33 33 34 29 28 29
41 41 41 36 38 37 38 36 36 38 38 40 43 45 47 47 48 48 48 48 50 51 50 50 49 46 43 40 38 36 35 32 32 33 34 32 30 28
39 36 35 34 34 36 36 37 38 40 42 43 46 49 51 52 52 49 47 47 48 48 51 51 46 45 39 37 35 34 33 30 31 33 34 31 28 26
35 33 32 33 35 37 35 36 37 38 42 47 51 54 56 56 55 53 51 50 49 48 47 50 47 34 33 33 30 31 29 28 31 32 33 30 27 27
30 32 34 34 35 38 39 41 42 44 49 52 56 59 60 60 57 55 51 53 49 47 44 38 32 32 32 31 30 29 29 29 30 32 32 29 27 25
31 32 33 34 36 38 42 47 51 52 55 57 58 57 56 54 52 50 50 48 47 43 39 37 30 29 30 27 27 29 29 28 30 32 31 27 23 24
30 30 31 34 37 40 45 50 54 55 56 53 50 50 50 47 43 43 42 44 40 38 37 36 33 28 26 22 26 27 27 27 29 30 27 23 20 23
29 31 32 36 40 44 48 51 53 54 52 50 48 46 44 43 39 34 33 34 34 36 32 33 31 24 25 24 24 26 25 25 27 27 22 18 19 20
30 32 35 39 43 45 48 50 51 51 48 47 46 44 41 37 34 29 30 29 26 27 24 25 24 23 21 24 23 23 22 24 26 21 16 15 16 17
31 34 37 40 43 45 47 48 49 49 47 46 46 43 39 31 26 28 26 28 24 22 22 20 27 21 23 22 22 21 22 20 21 15 13 14 14 14
34 36 39 41 43 44 45 47 47 47 47 46 44 41 35 27 24 26 19 15 19 19 16 19 22 22 21 18 21 20 19 20 13 13 12 11 10 12
36 39 41 42 43 44 45 46 46 46 44 42 40 36 29 23 20 16 16 17 20 21 22 20 20 20 17 18 18 17 16 15 11 10 10 9 9 8
40 42 43 43 44 45 45 45 45 44 42 38 36 31 24 19 20 17 17 14 14 13 15 17 17 18 15 15 15 13 13 11 8 8 8 8 8 6
42 43 44 44 44 44 44 43 43 41 38 35 33 27 20 19 13 15 13 13 15 13 13 15 15 14 14 12 11 12 13 8 7 7 7 6 8 9
43 43 44 43 42 42 42 41 39 36 33 31 29 23 20 17 15 15 14 17 17 15 14 11 13 12 13 10 9 11 11 7 7 6 6 6 7 8
43 43 43 42 41 41 40 38 36 33 30 28 25 20 17 17 13 13 14 17 15 16 13 13 11 11 12 9 8 11 10 6 7 7 6 4 10 11
43 43 41 41 40 40 38 36 33 30 28 26 23 20 17 19 16 15 13 9 14 14 13 13 11 12 11 9 9 11 9 12 9 7 6 5 6 7
43 41 41 40 39 38 36 34 31 28 27 25 21 20 18 17 21 20 16 13 12 14 14 12 13 13 10 10 10 10 11 10 9 7 5 4 3 3
Wind_Direction
272 286 285 287 283 295 302 299 287 297 301 292 289 284 283 285 289 291 292 292 291 292 297 300 300 297 297 297 296 296 294 293 293 297 301 302 300 293
282 279 292 287 292 292 290 293 293 301 299 298 296 291 284 282 280 280 282 283 286 290 296 299 300 295 294 297 298 296 292 292 296 301 303 305 300 293
291 283 288 276 294 287 295 295 298 298 297 296 296 293 291 289 286 285 287 288 292 293 297 301 301 301 299 297 297 298 293 294 299 304 306 305 297 291
289 293 285 298 288 296 295 297 297 295 294 297 297 296 294 292 289 285 288 289 290 292 295 298 303 303 301 297 301 300 292 294 300 305 308 303 292 290
295 285 287 295 301 296 294 295 295 295 294 295 299 298 295 290 288 287 289 290 291 292 292 291 300 306 302 305 307 301 292 294 300 303 307 298 288 287
286 288 293 291 294 291 292 295 295 294 295 296 296 296 294 293 287 285 285 287 289 287 285 284 299 303 305 303 299 296 293 294 298 304 307 293 281 283
289 288 292 290 292 293 294 296 296 298 298 297 297 294 293 292 287 285 284 286 283 284 285 281 293 299 297 295 296 296 293 292 297 303 306 297 284 280
290 289 289 290 291 291 292 298 302 301 302 300 298 295 295 290 289 287 285 282 282 282 284 277 282 288 293 293 296 297 291 292 298 304 305 297 287 283
286 288 290 291 291 296 299 297 299 300 300 297 296 295 291 290 287 284 282 281 281 283 278 278 284 292 293 291 298 299 293 294 298 301 304 296 287 282
288 289 293 297 298 300 301 299 299 303 305 301 297 295 292 290 286 282 278 276 277 278 281 277 280 283 289 287 292 302 293 296 298 302 301 296 287 282
288 294 298 298 299 300 303 306 307 307 304 302 300 297 295 293 289 282 278 275 275 277 279 271 272 278 280 285 292 299 295 295 297 302 302 295 285 283
295 296 298 301 302 303 304 305 306 306 305 302 300 300 300 298 292 284 273 268 275 276 275 289 264 267 278 289 290 294 290 294 298 302 298 292 288 292
296 298 300 300 302 304 306 308 308 307 306 305 306 306 303 300 293 284 270 264 273 271 273 284 276 265 276 291 290 295 292 295 299 300 297 289 292 287
296 298 300 305 306 307 308 310 310 310 308 307 308 306 302 298 295 288 274 263 264 270 273 271 268 277 280 284 288 292 293 297 301 299 289 289 282 292
297 300 304 307 307 308 311 312 312 312 311 310 307 304 299 296 295 299 282 250 267 260 265 269 274 280 279 279 292 293 293 299 300 291 288 283 284 313
298 300 302 304 307 309 312 314 314 314 312 310 308 305 299 288 292 297 273 269 261 265 262 275 273 277 270 282 292 289 294 302 289 275 282 269 288 324
295 298 300 303 306 309 313 315 316 314 311 310 309 307 296 280 289 287 278 254 259 275 267 264 273 266 268 285 284 287 293 295 275 273 276 260 279 331
296 299 301 305 308 311 314 315 314 312 311 311 311 308 292 267 277 282 283 292 260 265 277 272 259 258 270 283 284 288 296 293 251 279 282 266 272 307
297 301 303 305 308 311 313 313 312 311 311 312 313 307 282 251 274 262 262 264 260 272 267 255 247 255 279 280 287 288 294 280 246 287 287 257 272 294
299 301 303 305 307 309 311 311 310 310 308 309 311 300 280 262 270 260 251 245 261 267 258 251 254 267 280 276 269 277 283 263 246 274 268 244 278 297
298 300 301 304 306 308 309 309 307 306 303 305 309 295 277 251 250 249 248 246 265 265 269 251 259 270 271 266 270 270 267 249 250 252 252 258 252 285
298 299 301 303 305 306 306 304 303 300 295 298 301 295 283 244 242 252 228 260 268 266 253 246 264 276 267 269 272 270 257 239 240 240 252 254 259 286
296 298 300 301 302 303 302 301 299 297 290 284 287 295 269 251 248 252 236 239 256 270 245 246 267 273 263 262 263 262 235 215 224 247 250 258 249 293
Height
3107 3105 3104 3100 3098 3095 3092 3089 3085 3083 3080 3081 3076 3072 3067 3063 3059 3054 3050 3047 3044 3041 3039 3035 3031 3027 3023 3019 3014 3010 3005 3002 2998 2994 2990 2984 2978 2974
3099 3097 3094 3092 3090 3088 3083 3080 3077 3073 3066 3067 3064 3061 3059 3055 3051 3046 3043 3038 3035 3032 3029 3026 3022 3018 3014 3009 3005 3001 2997 2992 2988 2984 2978 2973 2968 2964
3087 3083 3084 3080 3079 3077 3073 3070 3066 3062 3056 3055 3053 3050 3046 3044 3040 3036 3031 3028 3024 3022 3019 3016 3012 3009 3005 3000 2996 2991 2987 2983 2978 2974 2968 2963 2959 2956
3080 3077 3076 3074 3070 3068 3064 3060 3056 3053 3047 3042 3041 3039 3035 3032 3029 3025 3021 3017 3014 3012 3008 3005 3002 2999 2994 2990 2987 2982 2978 2974 2970 2965 2959 2954 2950 2948
3072 3068 3067 3064 3062 3059 3054 3049 3046 3042 3037 3032 3028 3026 3024 3022 3018 3014 3011 3006 3003 3000 2997 2993 2992 2988 2984 2978 2975 2972 2968 2965 2961 2956 2951 2946 2943 2940
3063 3061 3058 3054 3051 3048 3044 3040 3036 3031 3028 3023 3018 3015 3011 3011 3005 3002 2998 2996 2992 2990 2985 2981 2981 2978 2973 2970 2966 2963 2959 2956 2953 2948 2942 2938 2934 2932
3054 3052 3049 3044 3041 3037 3031 3029 3026 3021 3017 3013 3008 3003 2999 2997 2993 2990 2985 2983 2980 2977 2973 2971 2971 2969 2965 2961 2957 2953 2949 2947 2943 2939 2934 2930 2926 2924
3043 3041 3038 3035 3032 3027 3024 3020 3015 3010 3006 3002 2996 2990 2986 2982 2979 2975 2972 2969 2965 2966 2962 2960 2959 2959 2955 2951 2948 2943 2940 2937 2934 2930 2925 2921 2917 2915
3034 3031 3028 3026 3021 3017 3015 3011 3007 3002 2997 2990 2983 2978 2971 2968 2962 2959 2957 2955 2952 2952 2949 2949 2950 2947 2945 2942 2939 2935 2931 2928 2925 2921 2917 2912 2909 2907
3024 3020 3017 3014 3009 3007 3003 2999 2996 2992 2985 2977 2969 2962 2956 2951 2947 2942 2941 2939 2938 2938 2937 2935 2939 2936 2936 2933 2931 2927 2923 2920 2916 2912 2908 2904 2902 2900
3015 3011 3007 3004 3000 2997 2991 2986 2981 2978 2971 2964 2956 2948 2941 2935 2931 2926 2923 2924 2923 2924 2925 2925 2926 2926 2925 2924 2922 2919 2915 2912 2908 2904 2900 2897 2894 2892
3005 3002 2999 2995 2989 2985 2979 2974 2968 2963 2956 2950 2944 2935 2927 2921 2917 2912 2910 2910 2911 2911 2914 2913 2915 2915 2914 2914 2913 2911 2907 2904 2900 2896 2893 2890 2888 2885
2996 2993 2990 2985 2981 2975 2968 2961 2954 2947 2941 2932 2926 2920 2914 2908 2903 2900 2898 2899 2900 2900 2904 2903 2904 2905 2904 2904 2905 2902 2899 2896 2893 2889 2886 2884 2883 2880
2986 2984 2979 2974 2969 2964 2957 2949 2941 2932 2925 2918 2912 2906 2900 2896 2891 2888 2887 2889 2890 2892 2894 2895 2896 2896 2895 2896 2896 2895 2891 2889 2885 2883 2881 2879 2877 2875
2975 2972 2968 2963 2958 2952 2945 2937 2929 2921 2913 2906 2899 2894 2889 2886 2883 2881 2878 2879 2881 2883 2886 2888 2888 2887 2889 2888 2887 2886 2884 2883 2879 2877 2876 2874 2872 2871
2965 2961 2956 2952 2947 2941 2934 2926 2918 2909 2902 2895 2889 2883 2879 2877 2875 2874 2872 2873 2874 2876 2879 2880 2880 2881 2881 2881 2880 2880 2878 2876 2874 2873 2871 2869 2868 2866
2955 2950 2945 2940 2935 2929 2922 2914 2907 2900 2893 2886 2879 2874 2870 2869 2869 2868 2867 2867 2868 2869 2871 2873 2874 2874 2874 2874 2874 2873 2872 2870 2869 2868 2867 2865 2864 2863
2943 2939 2933 2927 2921 2915 2909 2903 2896 2889 2883 2876 2870 2866 2862 2863 2862 2862 2862 2862 2863 2864 2865 2866 2867 2868 2869 2869 2868 2868 2866 2865 2864 2863 2862 2861 2861 2860
2932 2926 2920 2914 2909 2903 2897 2891 2886 2880 2874 2868 2862 2859 2857 2857 2857 2857 2857 2859 2859 2860 2861 2861 2861 2862 2863 2864 2863 2862 2861 2861 2861 2860 2859 2858 2858 2857
2919 2914 2908 2902 2897 2892 2886 2881 2876 2870 2866 2861 2857 2852 2851 2851 2852 2852 2853 2854 2855 2856 2856 2857 2857 2858 2858 2859 2859 2859 2858 2857 2858 2858 2857 2857 2856 2855
2907 2902 2896 2890 2885 2880 2875 2870 2866 2860 2856 2854 2851 2847 2845 2846 2846 2847 2847 2847 2850 2851 2851 2853 2853 2853 2854 2855 2855 2855 2854 2854 2855 2855 2855 2854 2853 2853
2893 2889 2883 2877 2873 2869 2865 2860 2856 2852 2848 2846 2844 2841 2839 2840 2841 2841 2842 2843 2844 2845 2847 2848 2848 2849 2850 2850 2851 2851 2850 2851 2852 2852 2852 2852 2851 2850
2880 2875 2871 2866 2861 2858 2854 2850 2846 2843 2839 2838 2837 2835 2834 2834 2835 2836 2836 2838 2840 2840 2842 2843 2844 2845 2846 2846 2847 2847 2847 2848 2849 2849 2850 2850 2849 2848